Aiken, SC

11:59 PM EDT on September 24, 2017 (GMT -0400)
Aiken Municipal

Weather History for KAIK - January, 2013

Change the Weather History Date:

Thursday, January 24, 2013

  Actual Average Record
Temperature  
Mean Temperature 48 °F -  
Max Temperature 62 °F 58 °F 69 °F (2012)
Min Temperature 32 °F 33 °F 17 °F (2014)
Degree Days  
Heating Degree Days 18    
Moisture  
Dew Point 32 °F    
Average Humidity 55    
Maximum Humidity 82    
Minimum Humidity 29    
Precipitation  
Precipitation 0.00 in - - ()
Sea Level Pressure  
Sea Level Pressure 30.23 in    
Wind  
Wind Speed 11 mph (WNW)    
Max Wind Speed 18 mph    
Max Gust Speed 25 mph    
Visibility 10 miles    
Events      
Averages and records for this station are not official NWS values.
T = Trace of Precipitation, MM = Missing Value Source: NWS Daily Summary

Daily Weather History Graph

Daily Weather History Graph

Search for Another Location

Airport or City:

Trip Planner

Search our weather history database for the weather conditions in past years. The results will help you decide how hot, cold, wet, or windy it might be!

Date:

Astronomy

Jan. 24, 2013 Rise Set
Actual Time 7:27 AM EST 5:50 PM EST
Civil Twilight 7:01 AM EST 6:16 PM EST
Nautical Twilight 6:31 AM EST 6:47 PM EST
Astronomical Twilight 6:01 AM EST 7:16 PM EST
Moon 3:52 PM EST (1/24) 5:22 AM EST (1/24)
Length of Visible Light 11h 15m
Length of Day
10h 22m
Waxing Gibbous, 94% of the Moon is Illuminated
Jan 24
Waxing Gibbous
Jan 26
Full
Feb 3
Last Quarter
Feb 10
New
Feb 17
First Quarter

Hourly Weather History & Observations

Time (EST) Temp. Windchill Dew Point Humidity Pressure Visibility Wind Dir Wind Speed Gust Speed Precip Events Conditions
12:15 AM 42.8 °F 38.6 °F 33.8 °F 70% 30.17 in 10.0 mi SSW 6.9 mph - N/A   Clear
12:35 AM 42.8 °F 38.6 °F 33.8 °F 70% 30.17 in 10.0 mi SW 6.9 mph - N/A   Clear
12:55 AM 41.0 °F 36.4 °F 35.6 °F 81% 30.17 in 10.0 mi SW 6.9 mph - N/A   Scattered Clouds
1:15 AM 44.6 °F 39.2 °F 35.6 °F 71% 30.16 in 10.0 mi WSW 10.4 mph - N/A   Scattered Clouds
1:35 AM 44.6 °F 39.2 °F 37.4 °F 76% 30.15 in 10.0 mi WSW 10.4 mph - N/A   Scattered Clouds
1:55 AM 44.6 °F 39.2 °F 37.4 °F 76% 30.15 in 10.0 mi WSW 10.4 mph - N/A   Scattered Clouds
2:15 AM 46.4 °F 41.5 °F 39.2 °F 76% 30.14 in 10.0 mi WSW 10.4 mph - N/A   Mostly Cloudy
2:35 AM 48.2 °F - 41.0 °F 76% 30.13 in 10.0 mi SW 11.5 mph 16.1 mph N/A   Mostly Cloudy
2:55 AM 50.0 °F - 41.0 °F 71% 30.13 in 10.0 mi WSW 15.0 mph 19.6 mph N/A   Overcast
3:15 AM 50.0 °F - 41.0 °F 71% 30.13 in 10.0 mi WSW 12.7 mph - N/A   Mostly Cloudy
3:35 AM 48.2 °F - 41.0 °F 76% 30.12 in 10.0 mi WSW 12.7 mph - N/A   Mostly Cloudy
3:55 AM 48.2 °F - 41.0 °F 76% 30.12 in 10.0 mi WSW 11.5 mph - N/A   Overcast
4:15 AM 50.0 °F - 41.0 °F 71% 30.11 in 10.0 mi West 11.5 mph - N/A   Overcast
4:55 AM 46.4 °F 41.1 °F 41.0 °F 81% 30.11 in 10.0 mi WSW 11.5 mph - N/A   Clear
5:15 AM 46.4 °F 40.7 °F 41.0 °F 81% 30.11 in 10.0 mi WSW 12.7 mph - N/A   Clear
5:35 AM 46.4 °F 41.1 °F 41.0 °F 81% 30.11 in 10.0 mi WSW 11.5 mph 18.4 mph N/A   Clear
5:55 AM 46.4 °F 40.7 °F 41.0 °F 81% 30.11 in 10.0 mi WSW 12.7 mph - N/A   Clear
6:15 AM 46.4 °F 41.1 °F 41.0 °F 81% 30.11 in 10.0 mi WSW 11.5 mph 19.6 mph N/A   Clear
6:35 AM 46.4 °F 41.5 °F 41.0 °F 81% 30.12 in 10.0 mi WSW 10.4 mph - N/A   Clear
6:55 AM 46.4 °F 40.4 °F 41.0 °F 81% 30.12 in 10.0 mi WSW 13.8 mph - N/A   Clear
7:15 AM 48.2 °F - 42.8 °F 82% 30.13 in 10.0 mi WSW 12.7 mph 17.3 mph N/A   Clear
7:35 AM 46.4 °F 41.5 °F 41.0 °F 81% 30.14 in 10.0 mi West 10.4 mph - N/A   Clear
7:55 AM 48.2 °F - 42.8 °F 82% 30.14 in 10.0 mi West 12.7 mph 17.3 mph N/A   Clear
8:15 AM 50.0 °F - 42.8 °F 76% 30.14 in 10.0 mi WSW 13.8 mph 18.4 mph N/A   Clear
8:35 AM 50.0 °F - 42.8 °F 76% 30.15 in 10.0 mi West 13.8 mph 19.6 mph N/A   Clear
8:55 AM 50.0 °F - 42.8 °F 76% 30.17 in 10.0 mi West 11.5 mph - N/A   Clear
9:15 AM 51.8 °F - 42.8 °F 71% 30.18 in 10.0 mi West 12.7 mph 17.3 mph N/A   Clear
9:35 AM 53.6 °F - 42.8 °F 67% 30.18 in 10.0 mi West 15.0 mph 20.7 mph N/A   Clear
10:15 AM 55.4 °F - 42.8 °F 63% 30.20 in 10.0 mi West 13.8 mph 18.4 mph N/A   Clear
10:55 AM 57.2 °F - 39.2 °F 51% 30.21 in 10.0 mi West 18.4 mph 25.3 mph N/A   Clear
11:15 AM 59.0 °F - 39.2 °F 48% 30.20 in 10.0 mi West 15.0 mph 20.7 mph N/A   Clear
11:35 AM 59.0 °F - 37.4 °F 45% 30.19 in 10.0 mi WSW 18.4 mph - N/A   Clear
11:55 AM 60.8 °F - 35.6 °F 39% 30.19 in 10.0 mi West 17.3 mph 21.9 mph N/A   Clear
12:15 PM 60.8 °F - 35.6 °F 39% 30.20 in 10.0 mi West 16.1 mph 24.2 mph N/A   Clear
12:35 PM 62.6 °F - 33.8 °F 34% 30.19 in 7.0 mi WNW 15.0 mph 21.9 mph N/A   Scattered Clouds
12:55 PM 62.6 °F - 33.8 °F 34% 30.20 in 10.0 mi West 13.8 mph 20.7 mph N/A   Clear
1:15 PM 62.6 °F - 33.8 °F 34% 30.21 in 10.0 mi NW 15.0 mph 20.7 mph N/A   Clear
1:35 PM 62.6 °F - 33.8 °F 34% 30.19 in 10.0 mi WNW 11.5 mph 17.3 mph N/A   Clear
1:55 PM 62.6 °F - 33.8 °F 34% 30.20 in 10.0 mi WNW 9.2 mph 20.7 mph N/A   Clear
2:15 PM 62.6 °F - 32.0 °F 32% 30.20 in 10.0 mi NW 13.8 mph 17.3 mph N/A   Clear
2:35 PM 62.6 °F - 32.0 °F 32% 30.20 in 10.0 mi NNW 12.7 mph 18.4 mph N/A   Clear
2:55 PM 62.6 °F - 32.0 °F 32% 30.20 in 10.0 mi WNW 8.1 mph - N/A   Clear
3:15 PM 62.6 °F - 32.0 °F 32% 30.22 in 10.0 mi NW 9.2 mph - N/A   Clear
3:35 PM 60.8 °F - 32.0 °F 34% 30.22 in 10.0 mi NNW 4.6 mph 9.2 mph N/A   Clear
3:55 PM 62.6 °F - 30.2 °F 30% 30.22 in 10.0 mi NNW 10.4 mph - N/A   Clear
4:15 PM 60.8 °F - 30.2 °F 31% 30.23 in 10.0 mi NW 8.1 mph - N/A   Clear
4:35 PM 60.8 °F - 28.4 °F 29% 30.24 in 10.0 mi NW 9.2 mph - N/A   Clear
4:55 PM 57.2 °F - 32.0 °F 38% 30.26 in 10.0 mi NNE 15.0 mph - N/A   Clear
5:15 PM 55.4 °F - 26.6 °F 33% 30.27 in 10.0 mi NE 11.5 mph 19.6 mph N/A   Clear
5:35 PM 53.6 °F - 26.6 °F 35% 30.28 in 10.0 mi NE 9.2 mph - N/A   Clear
5:55 PM 51.8 °F - 24.8 °F 35% 30.30 in 10.0 mi NNE 8.1 mph - N/A   Clear
6:15 PM 50.0 °F - 24.8 °F 37% 30.31 in 10.0 mi NNE 6.9 mph - N/A   Clear
6:35 PM 50.0 °F - 28.4 °F 43% 30.33 in 10.0 mi ENE 12.7 mph 19.6 mph N/A   Clear
6:55 PM 46.4 °F 40.7 °F 26.6 °F 46% 30.35 in 10.0 mi ENE 12.7 mph 19.6 mph N/A   Clear
7:15 PM 46.4 °F 40.7 °F 24.8 °F 43% 30.36 in 10.0 mi ENE 12.7 mph 20.7 mph N/A   Clear
7:35 PM 44.6 °F 38.8 °F 23.0 °F 43% 30.37 in 10.0 mi ENE 11.5 mph 21.9 mph N/A   Clear
8:15 PM 42.8 °F 34.8 °F 21.2 °F 42% 30.40 in 10.0 mi ENE 17.3 mph 23.0 mph N/A   Clear
8:35 PM 41.0 °F 32.2 °F 19.4 °F 42% 30.41 in 10.0 mi ENE 18.4 mph 24.2 mph N/A   Clear
8:55 PM 39.2 °F 32.5 °F 19.4 °F 45% 30.43 in 10.0 mi ENE 10.4 mph 18.4 mph N/A   Clear
9:15 PM 37.4 °F 28.2 °F 17.6 °F 45% 30.43 in 10.0 mi ENE 16.1 mph 19.6 mph N/A   Clear
9:35 PM 37.4 °F 30.3 °F 17.6 °F 45% 30.43 in 10.0 mi ENE 10.4 mph - N/A   Clear
9:55 PM 35.6 °F 28.0 °F 17.6 °F 48% 30.45 in 10.0 mi ENE 10.4 mph 18.4 mph N/A   Clear
10:15 PM 35.6 °F 28.0 °F 15.8 °F 44% 30.46 in 10.0 mi ENE 10.4 mph 16.1 mph N/A   Clear
10:35 PM 35.6 °F 27.5 °F 14.0 °F 41% 30.48 in 10.0 mi ENE 11.5 mph 21.9 mph N/A   Clear
10:55 PM 33.8 °F 25.8 °F 14.0 °F 44% 30.46 in 10.0 mi ENE 10.4 mph 17.3 mph N/A   Clear
11:15 PM 33.8 °F 26.4 °F 14.0 °F 44% 30.46 in 10.0 mi East 9.2 mph 16.1 mph N/A   Clear
11:35 PM 33.8 °F 27.0 °F 12.2 °F 41% 30.47 in 10.0 mi ENE 8.1 mph - N/A   Clear
11:55 PM 32.0 °F 24.2 °F 12.2 °F 44% 30.48 in 10.0 mi ENE 9.2 mph - N/A   Clear